GW4439 Weather Reports


Display with metric or nautical units.
time (UTC)temp
F
wind
direction
speed
MPH
gust
MPH
rain 1hr
in
rain 24hr
in
rain mn
in
humidity
%
barometer
mb
20260505172946 78 249 6.0 8.0 0.00 0.00 0.00 36 1016.2
20260505172445 77 212 7.0 8.0 0.00 0.00 0.00 35 1016.4
20260505171944 77 229 10.0 11.0 0.00 0.00 0.00 36 1016.2
20260505171441 77 147 6.0 7.0 0.00 0.00 0.00 37 1016.1
20260505170937 77 224 4.0 4.0 0.00 0.00 0.00 38 1016.2
20260505170434 76 214 10.0 10.0 0.00 0.00 0.00 38 1016.0
20260505165930 77 235 8.0 11.0 0.00 0.00 0.00 38 1016.0
20260505165426 76 244 4.0 4.0 0.00 0.00 0.00 37 1016.4
20260505164921 77 216 9.0 10.0 0.00 0.00 0.00 40 1016.4
20260505164413 77 232 8.0 11.0 0.00 0.00 0.00 41 1016.6
20260505163911 76 179 12.0 16.0 0.00 0.00 0.00 40 1016.4
20260505163410 76 221 13.0 15.0 0.00 0.00 0.00 39 1016.4
20260505162908 76 209 9.0 9.0 0.00 0.00 0.00 44 1016.6
20260505162403 75 220 8.0 9.0 0.00 0.00 0.00 45 1016.6
20260505161900 75 255 4.0 6.0 0.00 0.00 0.00 43 1017.0
20260505161357 76 223 6.0 8.0 0.00 0.00 0.00 42 1016.8
20260505160854 75 231 4.0 4.0 0.00 0.00 0.00 42 1017.0
20260505160353 75 197 5.0 7.0 0.00 0.00 0.00 41 1017.0
20260505153332 74 182 3.0 4.0 0.00 0.00 0.00 51 1016.9
20260505152829 74 237 3.0 3.0 0.00 0.00 0.00 54 1017.3
20260505152326 73 249 2.0 3.0 0.00 0.00 0.00 54 1017.2
20260505151825 72 252 2.0 2.0 0.00 0.00 0.00 54 1017.3
20260505151322 71 245 5.0 7.0 0.00 0.00 0.00 55 1017.3
20260505150819 72 255 6.0 8.0 0.00 0.00 0.00 55 1017.2
20260505150316 72 251 6.0 8.0 0.00 0.00 0.00 55 1017.3
20260505140240 68 222 6.0 7.0 0.00 0.00 0.00 69 1016.8
20260505130204 63 214 6.0 8.0 0.00 0.00 0.00 78 1016.5
20260505124654 61 198 4.0 6.0 0.00 0.00 0.00 80 1016.6
20260505124151 61 220 5.0 6.0 0.00 0.00 0.00 80 1016.6
20260505123648 60 199 1.0 1.0 0.00 0.00 0.00 81 1016.7
20260505123145 59 214 2.0 3.0 0.00 0.00 0.00 82 1016.5
20260505122641 59 192 3.0 3.0 0.00 0.00 0.00 82 1016.4
20260505122138 59 225 2.0 2.0 0.00 0.00 0.00 83 1016.4
20260505121634 58 226 2.0 2.0 0.00 0.00 0.00 83 1016.5
20260505121131 58 240 2.0 3.0 0.00 0.00 0.00 83 1016.4
20260505120627 58 237 2.0 2.0 0.00 0.00 0.00 83 1016.2
20260505120123 59 245 0.0 0.0 0.00 0.00 0.00 80 1016.2
20260505115617 59 218 0.0 1.0 0.00 0.00 0.00 81 1016.1
20260505115115 59 231 0.0 0.0 0.00 0.00 0.00 79 1016.0
20260505114612 56 234 0.0 0.0 0.00 0.00 0.00 86 1016.1
20260505114108 55 239 0.0 0.0 0.00 0.00 0.00 87 1016.1
20260505113605 54 239 0.0 0.0 0.00 0.00 0.00 89 1016.0
20260505113101 55 254 0.0 0.0 0.00 0.00 0.00 92 1016.1
20260505112558 52 254 0.0 0.0 0.00 0.00 0.00 94 1016.1
20260505112056 50 255 0.0 0.0 0.00 0.00 0.00 94 1016.1
20260505111555 50 254 0.0 0.0 0.00 0.00 0.00 95 1016.1
20260505111051 50 254 0.0 0.0 0.00 0.00 0.00 95 1015.9
20260505110548 50 254 0.0 0.0 0.00 0.00 0.00 95 1016.0
20260505102021 49 257 0.0 0.0 0.00 0.00 0.00 94 1015.8
20260505101519 50 262 0.0 0.0 0.00 0.00 0.00 93 1015.6
20260505101015 50 252 0.0 0.0 0.00 0.00 0.00 93 1015.6
20260505100507 50 252 0.0 0.0 0.00 0.00 0.00 92 1015.5
20260505100004 51 252 0.0 0.0 0.00 0.00 0.00 92 1015.7
20260505095500 51 252 0.0 0.0 0.00 0.00 0.00 92 1015.6
20260505094956 51 252 0.0 0.0 0.00 0.00 0.00 91 1015.7
20260505094453 51 252 0.0 0.0 0.00 0.00 0.00 90 1015.6
20260505093949 51 252 0.0 0.0 0.00 0.00 0.00 89 1015.5
20260505093446 52 251 0.0 0.0 0.00 0.00 0.00 89 1015.5
20260505092943 53 251 0.0 0.0 0.00 0.00 0.00 87 1015.6
20260505092441 54 246 0.0 0.0 0.00 0.00 0.00 85 1015.4
20260505091938 55 231 0.0 1.0 0.00 0.00 0.00 83 1015.3
20260505091436 55 230 1.0 1.0 0.00 0.00 0.00 84 1015.5
20260505090933 55 201 1.0 1.0 0.00 0.00 0.00 84 1015.4
20260505090432 55 239 0.0 0.0 0.00 0.00 0.00 82 1015.5
20260505085928 56 195 1.0 1.0 0.00 0.00 0.00 82 1015.5
20260505085426 56 231 0.0 0.0 0.00 0.00 0.00 81 1015.4
20260505084925 56 226 0.0 0.0 0.00 0.00 0.00 80 1015.3
20260505084422 57 193 2.0 2.0 0.00 0.00 0.00 80 1015.4
20260505083920 57 206 1.0 1.0 0.00 0.00 0.00 80 1015.2
20260505083417 57 192 2.0 2.0 0.00 0.00 0.00 80 1015.3
20260505082913 57 228 4.0 4.0 0.00 0.00 0.00 80 1015.4
20260505082409 57 214 1.0 1.0 0.00 0.00 0.00 79 1015.4
20260505081906 57 228 2.0 2.0 0.00 0.00 0.00 79 1015.5
20260505081403 57 195 2.0 3.0 0.00 0.00 0.00 78 1015.4
20260505080859 57 205 2.0 3.0 0.00 0.00 0.00 78 1015.3
20260505080356 57 201 2.0 3.0 0.00 0.00 0.00 77 1015.4
20260505075851 57 224 2.0 3.0 0.00 0.00 0.00 77 1015.3
20260505075348 57 164 2.0 2.0 0.00 0.00 0.00 77 1015.4
20260505074845 57 230 2.0 2.0 0.00 0.00 0.00 76 1015.3
20260505074342 58 198 3.0 3.0 0.00 0.00 0.00 76 1015.4
20260505073840 58 213 3.0 3.0 0.00 0.00 0.00 75 1015.4
20260505073337 58 198 1.0 2.0 0.00 0.00 0.00 75 1015.4
20260505072834 58 239 3.0 3.0 0.00 0.00 0.00 74 1015.2
20260505072330 58 214 2.0 3.0 0.00 0.00 0.00 74 1015.1
20260505071826 58 204 4.0 4.0 0.00 0.00 0.00 73 1015.3
20260505071323 58 202 3.0 3.0 0.00 0.00 0.00 73 1015.0
20260505070821 58 203 3.0 3.0 0.00 0.00 0.00 73 1015.1
20260505070318 59 222 1.0 2.0 0.00 0.00 0.00 73 1015.1
20260505065812 59 224 2.0 2.0 0.00 0.00 0.00 72 1015.2
20260505065309 59 196 2.0 3.0 0.00 0.00 0.00 72 1015.1
20260505064807 59 232 1.0 2.0 0.00 0.00 0.00 71 1015.1
20260505064303 59 172 3.0 3.0 0.00 0.00 0.00 71 1015.2
20260505063802 59 163 2.0 2.0 0.00 0.00 0.00 71 1015.3
20260505063258 59 212 3.0 3.0 0.00 0.00 0.00 70 1015.1
20260505062754 59 220 3.0 3.0 0.00 0.00 0.00 70 1015.2
20260505062252 59 165 3.0 4.0 0.00 0.00 0.00 70 1015.1
20260505061748 59 216 2.0 2.0 0.00 0.00 0.00 70 1015.1
20260505061246 59 203 2.0 2.0 0.00 0.00 0.00 69 1015.2
20260505060743 59 201 3.0 3.0 0.00 0.00 0.00 69 1015.3
20260505060241 59 236 2.0 2.0 0.00 0.00 0.00 68 1015.2
20260505055736 59 216 4.0 4.0 0.00 0.00 0.00 68 1015.3
20260505055232 60 220 2.0 2.0 0.00 0.00 0.00 67 1015.3
20260505054730 60 216 1.0 2.0 0.00 0.00 0.00 67 1015.3
20260505054227 60 178 2.0 3.0 0.00 0.00 0.00 66 1015.3
20260505053726 60 167 2.0 3.0 0.00 0.00 0.00 66 1015.7
20260505053221 60 158 4.0 4.0 0.00 0.00 0.00 65 1015.7
20260505052719 60 216 2.0 2.0 0.00 0.00 0.00 64 1015.6
20260505052216 60 209 1.0 1.0 0.00 0.00 0.00 64 1015.7
20260505051713 60 202 2.0 2.0 0.00 0.00 0.00 64 1015.7
20260505051211 60 200 2.0 2.0 0.00 0.00 0.00 63 1015.6
20260505050703 60 209 2.0 2.0 0.00 0.00 0.00 64 1015.7
20260505050202 60 185 2.0 2.0 0.00 0.00 0.00 64 1015.6
20260505041636 54 257 0.0 0.0 0.00 0.00 0.00 80 1015.5
20260505041133 55 257 0.0 0.0 0.00 0.00 0.00 79 1015.5
20260505040630 55 258 0.0 0.0 0.00 0.00 0.00 78 1015.6
20260505040128 55 257 0.0 0.0 0.00 0.00 0.00 78 1015.5
20260505035624 55 258 0.0 0.0 0.00 0.00 0.00 79 1015.7
20260505035120 56 258 0.0 0.0 0.00 0.00 0.00 76 1015.5
20260505034617 57 256 0.0 0.0 0.00 0.00 0.00 75 1015.4
20260505034114 57 257 0.0 0.0 0.00 0.00 0.00 73 1015.6
20260505033610 59 251 0.0 0.0 0.00 0.00 0.00 71 1015.9
20260505033109 60 243 0.0 0.0 0.00 0.00 0.00 68 1015.8
20260505032606 60 244 0.0 0.0 0.00 0.00 0.00 67 1015.6
20260505032102 62 246 0.0 0.0 0.00 0.00 0.00 65 1015.7
20260505031600 62 237 0.0 0.0 0.00 0.00 0.00 62 1015.5
20260505031056 63 235 0.0 0.0 0.00 0.00 0.00 63 1015.8
20260505030553 62 222 0.0 0.0 0.00 0.00 0.00 62 1015.6
20260505030049 61 248 0.0 0.0 0.00 0.00 0.00 64 1015.6
20260505025545 62 248 0.0 0.0 0.00 0.00 0.00 62 1015.8
20260505025044 64 251 0.0 0.0 0.00 0.00 0.00 60 1015.6
20260505024541 66 238 0.0 0.0 0.00 0.00 0.00 57 1015.6
20260505024038 66 231 1.0 2.0 0.00 0.00 0.00 51 1015.5
20260505023535 66 232 1.0 2.0 0.00 0.00 0.00 51 1015.5
20260505023033 66 239 1.0 2.0 0.00 0.00 0.00 50 1015.4
20260505022530 67 207 2.0 2.0 0.00 0.00 0.00 49 1015.7
20260505022027 67 174 4.0 4.0 0.00 0.00 0.00 49 1015.6
20260505021524 67 211 2.0 2.0 0.00 0.00 0.00 49 1015.5
20260505021020 67 183 2.0 2.0 0.00 0.00 0.00 49 1015.5
20260505020520 67 223 2.0 3.0 0.00 0.00 0.00 48 1015.2
20260505020018 67 235 2.0 2.0 0.00 0.00 0.00 47 1015.5
20260505015515 68 229 3.0 4.0 0.00 0.00 0.00 47 1015.6
20260505015011 68 223 3.0 3.0 0.00 0.00 0.00 46 1015.5
20260505014508 68 224 2.0 3.0 0.00 0.00 0.00 46 1015.3
20260505014006 68 211 2.0 3.0 0.00 0.00 0.00 46 1015.2
20260505013503 68 194 2.0 2.0 0.00 0.00 0.00 45 1015.1
20260505013000 69 210 2.0 2.0 0.00 0.00 0.00 44 1015.1
20260505012458 69 217 2.0 2.0 0.00 0.00 0.00 44 1015.1
20260505011954 69 182 4.0 4.0 0.00 0.00 0.00 43 1015.1
20260505011450 69 201 2.0 3.0 0.00 0.00 0.00 43 1015.0
20260505010947 69 180 3.0 3.0 0.00 0.00 0.00 42 1015.1
20260505010443 69 205 2.0 3.0 0.00 0.00 0.00 42 1015.1
20260505005939 69 225 1.0 2.0 0.00 0.00 0.00 43 1015.0
20260505005436 68 219 1.0 1.0 0.00 0.00 0.00 45 1014.9
20260505004934 65 236 0.0 0.0 0.00 0.00 0.00 61 1014.8
20260505004430 65 256 0.0 0.0 0.00 0.00 0.00 63 1014.7
20260505003927 65 257 0.0 0.0 0.00 0.00 0.00 62 1014.7
20260505003424 67 257 0.0 0.0 0.00 0.00 0.00 59 1014.7
20260505002920 70 249 0.0 0.0 0.00 0.00 0.00 52 1014.7
20260505002417 71 242 1.0 1.0 0.00 0.00 0.00 40 1014.6
20260505001915 72 235 1.0 1.0 0.00 0.00 0.00 41 1014.6
20260505001413 72 199 1.0 2.0 0.00 0.00 0.00 39 1014.5
20260505000910 72 232 1.0 2.0 0.00 0.00 0.00 38 1014.5
20260505000408 73 210 2.0 2.0 0.00 0.00 0.00 38 1014.5
20260504235904 73 220 2.0 2.0 0.00 0.00 0.00 38 1014.2
20260504235401 73 220 2.0 3.0 0.00 0.00 0.00 38 1014.3
20260504234857 74 227 2.0 3.0 0.00 0.00 0.00 38 1014.3
20260504234355 74 231 1.0 2.0 0.00 0.00 0.00 39 1014.2
20260504233851 74 186 2.0 2.0 0.00 0.00 0.00 39 1014.3
20260504233347 74 233 2.0 2.0 0.00 0.00 0.00 40 1014.3
20260504232844 75 247 3.0 3.0 0.00 0.00 0.00 39 1014.2
20260504232341 75 229 2.0 2.0 0.00 0.00 0.00 39 1014.4
20260504231838 76 233 3.0 4.0 0.00 0.00 0.00 39 1014.3
20260504231334 76 200 2.0 2.0 0.00 0.00 0.00 37 1014.1
20260504230830 76 227 2.0 3.0 0.00 0.00 0.00 37 1014.1
20260504230329 77 236 2.0 2.0 0.00 0.00 0.00 36 1014.3
20260504225827 77 232 2.0 2.0 0.00 0.00 0.00 36 1014.1
20260504225323 77 221 4.0 4.0 0.00 0.00 0.00 34 1014.0
20260504224821 77 239 2.0 3.0 0.00 0.00 0.00 35 1014.1
20260504224317 77 207 2.0 2.0 0.00 0.00 0.00 34 1014.1
20260504223814 77 233 4.0 4.0 0.00 0.00 0.00 33 1014.2
20260504223310 77 220 2.0 3.0 0.00 0.00 0.00 32 1014.2
20260504222807 77 235 3.0 3.0 0.00 0.00 0.00 32 1014.2
20260504222304 77 246 4.0 4.0 0.00 0.00 0.00 32 1014.1
20260504221801 77 224 3.0 4.0 0.00 0.00 0.00 32 1014.1
20260504221258 77 237 3.0 4.0 0.00 0.00 0.00 32 1014.0
20260504220755 78 238 3.0 4.0 0.00 0.00 0.00 32 1014.2
20260504220252 78 201 6.0 8.0 0.00 0.00 0.00 30 1014.0
20260504215749 78 227 4.0 4.0 0.00 0.00 0.00 32 1014.1
20260504215245 78 211 4.0 4.0 0.00 0.00 0.00 30 1014.1
20260504214741 78 224 6.0 7.0 0.00 0.00 0.00 30 1014.3
20260504214238 78 228 6.0 7.0 0.00 0.00 0.00 30 1014.1
20260504213735 79 233 2.0 3.0 0.00 0.00 0.00 30 1014.1
20260504213231 78 219 4.0 6.0 0.00 0.00 0.00 31 1014.2
20260504212728 78 239 5.0 6.0 0.00 0.00 0.00 32 1014.0
20260504212225 78 198 4.0 6.0 0.00 0.00 0.00 32 1014.1
20260504211723 78 216 6.0 7.0 0.00 0.00 0.00 31 1014.1
20260504211218 78 179 6.0 6.0 0.00 0.00 0.00 31 1014.0
20260504210716 78 244 6.0 7.0 0.00 0.00 0.00 32 1014.0
20260504210213 79 238 5.0 7.0 0.00 0.00 0.00 31 1014.1
20260504205710 79 237 6.0 8.0 0.00 0.00 0.00 31 1014.1
20260504205207 79 236 7.0 9.0 0.00 0.00 0.00 32 1014.1
20260504204706 78 239 1.0 1.0 0.00 0.00 0.00 33 1014.0
20260504204204 78 209 7.0 9.0 0.00 0.00 0.00 32 1014.1
20260504203703 78 204 6.0 7.0 0.00 0.00 0.00 31 1014.2
20260504203200 79 209 4.0 4.0 0.00 0.00 0.00 33 1014.4
20260504202700 78 224 5.0 6.0 0.00 0.00 0.00 32 1014.3
20260504202157 78 205 5.0 7.0 0.00 0.00 0.00 33 1014.3
20260504201654 78 211 5.0 6.0 0.00 0.00 0.00 33 1014.4
20260504201152 77 239 0.0 1.0 0.00 0.00 0.00 32 1014.5
20260504200649 78 226 4.0 4.0 0.00 0.00 0.00 31 1014.6
20260504200145 77 241 6.0 7.0 0.00 0.00 0.00 32 1014.6
20260504195641 78 170 4.0 7.0 0.00 0.00 0.00 29 1014.7
20260504195137 77 176 4.0 6.0 0.00 0.00 0.00 32 1014.8
20260504194634 78 187 7.0 8.0 0.00 0.00 0.00 31 1014.8
20260504194130 77 230 5.0 6.0 0.00 0.00 0.00 33 1015.0
20260504193627 77 225 4.0 4.0 0.00 0.00 0.00 31 1015.0
20260504193125 77 214 3.0 4.0 0.00 0.00 0.00 33 1015.3
20260504192623 77 199 2.0 3.0 0.00 0.00 0.00 33 1015.2
20260504192121 77 205 6.0 8.0 0.00 0.00 0.00 33 1015.3
20260504191619 77 222 6.0 9.0 0.00 0.00 0.00 32 1015.4
20260504191115 77 241 5.0 6.0 0.00 0.00 0.00 31 1015.5
20260504190611 76 225 6.0 7.0 0.00 0.00 0.00 31 1015.6
20260504190108 76 180 7.0 7.0 0.00 0.00 0.00 33 1015.8
20260504185604 76 175 4.0 6.0 0.00 0.00 0.00 33 1015.6
20260504185101 76 244 7.0 10.0 0.00 0.00 0.00 33 1015.6
20260504184556 76 226 4.0 6.0 0.00 0.00 0.00 32 1015.6
20260504184052 75 170 4.0 6.0 0.00 0.00 0.00 35 1015.8
20260504183549 76 221 5.0 6.0 0.00 0.00 0.00 34 1015.8
20260504183047 76 211 4.0 6.0 0.00 0.00 0.00 34 1015.8
20260504182544 76 217 4.0 4.0 0.00 0.00 0.00 35 1015.8
20260504182041 76 204 3.0 4.0 0.00 0.00 0.00 34 1015.9
20260504181538 76 156 5.0 8.0 0.00 0.00 0.00 37 1015.8
20260504181037 76 220 7.0 8.0 0.00 0.00 0.00 35 1015.9
20260504180535 75 76 2.0 3.0 0.00 0.00 0.00 35 1015.8
20260504180034 75 292 2.0 2.0 0.00 0.00 0.00 34 1016.0
20260504175531 75 279 2.0 2.0 0.00 0.00 0.00 33 1016.2
20260504175028 73 229 3.0 3.0 0.00 0.00 0.00 33 1016.2
20260504174525 73 239 2.0 2.0 0.00 0.00 0.00 33 1016.3
20260504174022 73 201 3.0 6.0 0.00 0.00 0.00 34 1016.5
20260504173519 73 247 5.0 6.0 0.00 0.00 0.00 33 1016.4